Regional Weather Roundup
Issued by NWS

Home | Current Version | Previous Version | Text Only | Print | Product List | Glossary Off
Versions: 1 2 3 4 5 6 7 8 9 10 11 12 13 14 15 16 17 18 19 20 21 22 23 24 25 26 27 28 29 30 31 32 33 34 35 36 37 38 39 40 41 42 43 44 45 46 47 48 49 50

000
ASUS43 KMKX 250521
RWRWI

WISCONSIN REGIONAL WEATHER ROUNDUP
NATIONAL WEATHER SERVICE MILWAUKEE/SULLIVAN WI
1200 AM CDT FRI APR 25 2014

NOTE: "FAIR" INDICATES FEW OR NO CLOUDS BELOW 12,000 FEET WITH NO
SIGNIFICANT WEATHER AND/OR OBSTRUCTIONS TO VISIBILITY.

WIZ001-002-006>008-014>016-023>028-250600-
NORTHWEST WISCONSIN

CITY           SKY/WX    TMP DP  RH WIND       PRES   REMARKS
SUPERIOR ARPT  CLOUDY    32  32 100 NE6       29.70S WCI  26
ASHLAND        MIX PCPN  34  34 100 NE5       29.68F FOG     WCI  30
HAYWARD        CLOUDY    39  38  96 VRB3      29.67F
SIREN          CLOUDY    37  37  99 W3        29.70S
RICE LAKE      CLOUDY    40  38  91 W6        29.71R
LADYSMITH      CLOUDY    42  41  97 SW5       29.70S FOG
EAU CLAIRE     CLOUDY    43  40  89 W6        29.71R
MENOMONIE      CLOUDY    43  42  97 W7        29.72S
NEW RICHMOND   MOCLDY    40  38  93 W7        29.72S
OSCEOLA        PTCLDY    39  39  99 CALM      29.74S
$$

WIZ003>005-009-010-017-018-250600-
NORTH CENTRAL WISCONSIN

CITY           SKY/WX    TMP DP  RH WIND       PRES   REMARKS
WOODRUFF       DRIZZLE   37  35  93 SE7       29.69F WCI  31
RHINELANDER    LGT RAIN  35  34  96 SE6       29.70S FOG     WCI  30
EAGLE RIVER    LGT RAIN  34  34 100 SE8       29.69F WCI  27
LAND O LAKES   LGT SNOW  35  34  96 SE9       29.71S WCI  27
PHILLIPS       CLOUDY    37  37  98 SE6       29.67F FOG     WCI  32
TOMAHAWK       DRIZZLE   37  35  94 CALM      29.69F
MEDFORD        CLOUDY    38  38  98 S7        29.68S FOG     WCI  33
MERRILL        DRIZZLE   38  37  99 CALM      29.69F
$$

WIZ029-030-035-036-043>047-250600-
CENTRAL WISCONSIN

CITY           SKY/WX    TMP DP  RH WIND       PRES   REMARKS
WAUSAU         LGT RAIN  38  38 100 SE5       29.68S FOG     WCI  34
MOSINEE        DRIZZLE   37  37 100 CALM      29.70R
MARSHFIELD     CLOUDY    41  39  93 CALM      29.68F FOG
STEVENS POINT  DRIZZLE   38  37  96 SE3       29.70R
WAUPACA        CLOUDY    43  39  87 E3        29.68F
WAUTOMA        LGT RAIN  42  40  93 NE5       29.68F FOG
WISC RAPIDS    CLOUDY    41  40  96 CALM      29.69F FOG
CAMP DOUGLAS   CLOUDY    45  45 100 W9        29.70R
$$

WIZ011>013-019>022-031-037>040-048>050-250600-
NORTHEAST WISCONSIN

CITY           SKY/WX    TMP DP  RH WIND       PRES   REMARKS
ANTIGO         LGT SNOW  36  35  96 SE17G25   29.68F WCI  26
STURGEON BAY   CLOUDY    41  32  70 SE10      29.75F
GREEN BAY      LGT RAIN  42  38  85 E13       29.72F
MANITOWOC      LGT RAIN  41  33  73 SE10      29.74F
APPLETON       CLOUDY    43  34  70 SE13      29.69F
CLINTONVILLE   CLOUDY    39  37  93 SE8       29.69F WCI  34
OSHKOSH        CLOUDY    45  35  68 SE8       29.68F
$$

WIZ032>034-041-042-053>061-250600-
SOUTHWEST WISCONSIN

CITY           SKY/WX    TMP DP  RH WIND       PRES   REMARKS
LA CROSSE      CLOUDY    46  40  79 NW10      29.73R
SPARTA         CLOUDY    44  42  92 W5        29.73R
VIROQUA        CLOUDY    44  43  97 NW12      29.71S
BOSCOBEL       CLOUDY    49  44  83 W5        29.72R
PRAIRIE DU CHI CLOUDY    46  41  81 NW10G16   29.73R
PLATTEVILLE    MOCLDY    48  46  91 NW10      29.71R
$$

WIZ056-057-062-063-064-067-068-250600-
SOUTH CENTRAL WISCONSIN

CITY           SKY/WX    TMP DP  RH WIND       PRES   REMARKS
BARABOO/DELLS  DRZL/FOG  45  44  95 NW5       29.68R VSB 1/2
LONE ROCK      CLOUDY    49  46  90 NW12      29.70R
WATERTOWN      LGT RAIN  45  41  86 E9        29.66F
MADISON        CLOUDY    50  48  93 CALM      29.68R
MIDDLETON      CLOUDY    52  51  95 SW5       29.68S
MONROE         FOG       50  50 100 NW3       29.67R VSB 3/4
JANESVILLE     LGT RAIN  50  45  81 E3        29.66F
$$

WIZ051-052-058>065-066-070>072-250600-
SOUTHEAST WISCONSIN

CITY           SKY/WX    TMP DP  RH WIND       PRES   REMARKS
MILWAUKEE      LGT RAIN  45  35  68 SE15G21   29.71F
WAUKESHA       LGT RAIN  43  37  81 E6        29.71S
MILWAUKEE/TIMM LGT RAIN  45  34  65 SE7       29.72S
RACINE         LGT RAIN  45  35  68 SE12      29.70F
BURLINGTON     LGT RAIN  44  39  81 MISG      29.69S
KENOSHA        LGT RAIN  46  36  68 SE9       29.68F
FOND DU LAC    LGT RAIN  44  36  73 SE12      29.68F
SHEBOYGAN      LGT RAIN  42  34  73 SE9       29.73F
WEST BEND      LGT RAIN  41  36  81 SE3       29.72R
JUNEAU         RAIN      45  38  77 SE16G26   29.65F
$$

LSZ147-162-250600-
LAKE SUPERIOR

STATION/POSITION TIME  TEMP    WIND        PRES    WAVE
                       AIR SEA DIR/SP/G            HT/PER
                 (UTC) (F)     (DEG/KT/KT) (MB)    (FT/S)
DEVILS ISLAND    0500   33     100/ 18/ 21 1006.1F
PORT WING        0440   33      30/  8/ 11 1005.4F
SAXON HARBOR     0400          200/  1/  4 1006.1
$$

LMZ867-665-643>646-250600-
LAKE MICHIGAN

STATION/POSITION TIME  TEMP    WIND        PRES    WAVE
                       AIR SEA DIR/SP/G            HT/PER
                 (UTC) (F)     (DEG/KT/KT) (MB)    (FT/S)
NORTHPORT PIER   0400   38      90/ 16/ 23 1010.2F
SISTER BAY       0423   40      90/ 11/ 16   N/A
KEWAUNEE LAKESHO 0500   40     110/ 11/ 14 1008.1F
SHEBOYGAN LAKESH 0500   40     140/  8/ 10 1007.3F
PORT WASHINGTON  0440   41     150/  1/  4 1007.5F
MILWAUKEE LAKESH 0500   42     130/  3/  5   N/A
KENOSHA   LAKESH 0500   43     150/  8/ 11   N/A
$$

TC  - TEMPERATURE IN CELSIUS
VSB - VISIBILITY IN STATUTE MILES
WCI - WIND CHILL INDEX
HX  - HEAT INDEX




USA.gov is the U.S. government's official web portal to all federal, state and local government web resources and services.